Location: Kellogg
(38.0159°N, 90.0546°W)
Time: 18:28:28
(UTC+00:00)

ACS3 Solar Sail - Pass Details

Date: 14 August 2024
Orbit: 977 x 1032 km, 97.4° (Epoch: 11 September)

Event Time Altitude Azimuth Distance (km) Brightness Sun altitude
Exits shadow 04:32:21 - 244° (WSW) 2,914 4.3 -33.4°
Reaches altitude 10° 04:33:15 10° 251° (WSW) 2,781 4.2 -33.5°
Maximum altitude 04:35:36 12° 274° (W) 2,634 4.3 -33.7°
Drops below altitude 10° 04:37:58 10° 296° (WNW) 2,805 4.7 -33.9°
Sets 04:42:28 0° 326° (NW) 3,779 5.9 -34.3°
